Location: Risskov
(56.1972°N, 10.2480°E)
Time: 00:01:17
(UTC+00:00)

Cosmos 1782 - Pass Details

Date: 05 July 2020
Orbit: 536 x 553 km, 82.5° (Epoch: 03 August)

Event Time Altitude Azimuth Distance (km) Brightness Sun altitude
Rises 22:13:26 0° 354° (N) 2,709 8.4 -9.7°
Reaches altitude 10° 22:15:52 10° 7° (N) 1,810 6.7 -9.8°
Maximum altitude 22:19:16 26° 65° (ENE) 1,085 4.4 -10.0°
Drops below altitude 10° 22:22:37 10° 124° (ESE) 1,796 5.0 -10.1°
Enters shadow 22:23:03 - 127° (SE) 1,949 5.2 -10.1°
